Breckenridge, TX

2:59 PM CDT on June 23, 2017 (GMT -0500)
Stephens County

Weather History for KBKD - December, 2012

Change the Weather History Date:

Tuesday, December 4, 2012

  Actual Average (KMWL) Record (KMWL)
Temperature  
Mean Temperature 60 °F -  
Max Temperature 68 °F 59 °F 77 °F (1998)
Min Temperature 50 °F 37 °F 19 °F (2006)
Degree Days  
Heating Degree Days 6    
Growing Degree Days 10 (Base 50)    
Moisture  
Dew Point 36 °F    
Average Humidity 47    
Maximum Humidity 62    
Minimum Humidity 25    
Precipitation  
Precipitation 0.00 in - - ()
Sea Level Pressure  
Sea Level Pressure 30.17 in    
Wind  
Wind Speed 8 mph (NNW)    
Max Wind Speed 17 mph    
Max Gust Speed 22 mph    
Visibility 10 miles    
Events      
Averages and records for this station are not official NWS values.
T = Trace of Precipitation, MM = Missing Value Source: NWS Daily Summary

Daily Weather History Graph

Daily Weather History Graph

Search for Another Location

Airport or City:

Trip Planner

Search our weather history database for the weather conditions in past years. The results will help you decide how hot, cold, wet, or windy it might be!

Date:

Astronomy

Dec. 04, 2012 Rise Set
Actual Time 7:22 AM CST 5:29 PM CST
Civil Twilight 6:55 AM CST 5:56 PM CST
Nautical Twilight 6:25 AM CST 6:26 PM CST
Astronomical Twilight 5:55 AM CST 6:56 PM CST
Moon 11:05 PM CST (12/4) 11:28 AM CST (12/4)
Length of Visible Light 11h 00m
Length of Day
10h 06m
Waning Gibbous, 69% of the Moon is Illuminated
Dec 4
Waning Gibbous
Dec 6
Last Quarter
Dec 13
New
Dec 19
First Quarter
Dec 28
Full

Hourly Weather History & Observations

Time (CST) Temp. Dew Point Humidity Pressure Visibility Wind Dir Wind Speed Gust Speed Precip Events Conditions
12:15 AM 60.8 °F 32.0 °F 34% 30.03 in 10.0 mi North 6.9 mph - N/A   Clear
12:35 AM 60.8 °F 32.0 °F 34% 30.03 in 10.0 mi North 6.9 mph - N/A   Clear
12:55 AM 59.0 °F 32.0 °F 36% 30.04 in 10.0 mi NW 5.8 mph - N/A   Clear
1:15 AM 57.2 °F 33.8 °F 41% 30.05 in 10.0 mi NNW 6.9 mph - N/A   Clear
1:35 AM 57.2 °F 35.6 °F 44% 30.05 in 10.0 mi NW 3.5 mph - N/A   Clear
1:55 AM 55.4 °F 35.6 °F 47% 30.06 in 10.0 mi NNW 3.5 mph - N/A   Clear
2:15 AM 53.6 °F 35.6 °F 51% 30.06 in 10.0 mi NW 3.5 mph - N/A   Clear
2:55 AM 53.6 °F 37.4 °F 54% 30.06 in 10.0 mi NNW 5.8 mph - N/A   Clear
3:15 AM 51.8 °F 37.4 °F 58% 30.06 in 10.0 mi NW 5.8 mph - N/A   Clear
3:35 AM 51.8 °F 37.4 °F 58% 30.06 in 10.0 mi NNW 8.1 mph - N/A   Clear
3:55 AM 51.8 °F 37.4 °F 58% 30.07 in 10.0 mi NW 5.8 mph - N/A   Clear
4:15 AM 51.8 °F 39.2 °F 62% 30.08 in 10.0 mi NNW 5.8 mph - N/A   Clear
4:35 AM 51.8 °F 39.2 °F 62% 30.09 in 10.0 mi NNW 6.9 mph - N/A   Clear
4:55 AM 51.8 °F 39.2 °F 62% 30.09 in 10.0 mi NNW 6.9 mph - N/A   Clear
5:15 AM 51.8 °F 39.2 °F 62% 30.11 in 10.0 mi NNW 8.1 mph - N/A   Clear
5:35 AM 51.8 °F 39.2 °F 62% 30.12 in 10.0 mi NNW 5.8 mph - N/A   Clear
5:55 AM 51.8 °F 39.2 °F 62% 30.13 in 10.0 mi NNW 5.8 mph - N/A   Clear
6:15 AM 51.8 °F 39.2 °F 62% 30.14 in 10.0 mi NW 4.6 mph - N/A   Clear
6:35 AM 51.8 °F 39.2 °F 62% 30.16 in 10.0 mi NNW 4.6 mph - N/A   Clear
6:55 AM 51.8 °F 37.4 °F 58% 30.17 in 10.0 mi North 6.9 mph - N/A   Clear
7:15 AM 51.8 °F 37.4 °F 58% 30.18 in 10.0 mi NNW 9.2 mph - N/A   Clear
7:35 AM 51.8 °F 37.4 °F 58% 30.20 in 10.0 mi NNW 8.1 mph - N/A   Clear
7:55 AM 51.8 °F 37.4 °F 58% 30.21 in 10.0 mi NNW 8.1 mph - N/A   Clear
8:15 AM 53.6 °F 37.4 °F 54% 30.21 in 10.0 mi NNW 10.4 mph - N/A   Clear
8:35 AM 53.6 °F 37.4 °F 54% 30.22 in 10.0 mi North 6.9 mph - N/A   Clear
8:55 AM 55.4 °F 37.4 °F 51% 30.23 in 10.0 mi North 8.1 mph - N/A   Clear
9:15 AM 55.4 °F 37.4 °F 51% 30.24 in 10.0 mi North 12.7 mph - N/A   Clear
9:35 AM 57.2 °F 37.4 °F 48% 30.25 in 10.0 mi North 15.0 mph 20.7 mph N/A   Clear
9:55 AM 57.2 °F 35.6 °F 44% 30.26 in 10.0 mi North 13.8 mph 20.7 mph N/A   Clear
10:15 AM 59.0 °F 35.6 °F 42% 30.27 in 10.0 mi North 17.3 mph 20.7 mph N/A   Clear
10:35 AM 59.0 °F 35.6 °F 42% 30.27 in 10.0 mi North 12.7 mph 19.6 mph N/A   Clear
10:55 AM 60.8 °F 35.6 °F 39% 30.27 in 10.0 mi North 8.1 mph 18.4 mph N/A   Clear
11:15 AM 60.8 °F 35.6 °F 39% 30.27 in 10.0 mi North 12.7 mph 17.3 mph N/A   Clear
11:35 AM 60.8 °F 35.6 °F 39% 30.28 in 10.0 mi North 16.1 mph 21.9 mph N/A   Clear
11:55 AM 62.6 °F 35.6 °F 37% 30.27 in 10.0 mi North 12.7 mph 20.7 mph N/A   Clear
12:15 PM 62.6 °F 35.6 °F 37% 30.26 in 10.0 mi North 9.2 mph 17.3 mph N/A   Clear
12:35 PM 64.4 °F 35.6 °F 34% 30.25 in 10.0 mi North 9.2 mph 17.3 mph N/A   Clear
12:55 PM 64.4 °F 35.6 °F 34% 30.25 in 10.0 mi North 10.4 mph 18.4 mph N/A   Clear
1:15 PM 68.0 °F 35.6 °F 30% 30.25 in 10.0 mi North 10.4 mph 19.6 mph N/A   Clear
1:35 PM 68.0 °F 33.8 °F 28% 30.25 in 10.0 mi North 12.7 mph 21.9 mph N/A   Clear
1:55 PM 68.0 °F 33.8 °F 28% 30.24 in 10.0 mi North 11.5 mph 19.6 mph N/A   Clear
2:15 PM 68.0 °F 32.0 °F 26% 30.24 in 10.0 mi North 10.4 mph 19.6 mph N/A   Clear
6:55 PM 59.0 °F 23.0 °F 25% 30.27 in 10.0 mi NNE 5.8 mph - N/A   Clear
9:55 PM 50.0 °F 23.0 °F 35% 30.30 in 10.0 mi Calm Calm - N/A   Clear